Regional Weather Roundup
Issued by NWS

Home | Current Version | Previous Version | Text Only | Print | Product List | Glossary Off
Versions: 1 2 3 4 5 6 7 8 9 10 11 12 13 14 15 16 17 18 19 20 21 22 23 24 25 26 27 28 29 30 31 32 33 34 35 36 37 38

000
ASUS45 KBOU 171610
RWRCO

WEATHER ROUNDUP FOR COLORADO
NATIONAL WEATHER SERVICE PUEBLO CO
900 AM MST SAT FEB 17 2018

NOTE: "FAIR" INDICATES FEW OR NO CLOUDS BELOW 12000 FEET WITH NO
SIGNIFICANT WEATHER AND/OR OBSTRUCTIONS TO VISIBILITY.

COZ001>005-013-030-031-171700-
...NORTHWEST COLORADO...

CITY           SKY/WX    TMP DP  RH WIND       PRES   REMARKS
CRAIG          SUNNY     14   6  70 E3        30.22R
HAYDEN         SUNNY     21   9  59 E5        30.21R WCI  15
MEEKER         SUNNY     28  12  51 CALM      30.22R
RABBIT EARS PA NOT AVBL
STEAMBOAT SPGS PTSUNNY   26  12  55 CALM      30.19R
WALDEN         FAIR      23   9  54 SW26G33   30.09F WCI   6
$$

COZ006>008-011-171700-
...WEST CENTRAL VALLEYS...

CITY           SKY/WX    TMP DP  RH WIND       PRES   REMARKS
GRAND JUNCTION SUNNY     30  23  75 SE9       30.27R WCI  22
MONTROSE       SUNNY     29  21  72 CALM      30.29R
EAGLE          SUNNY     27  14  58 E3        30.25R
RIFLE          SUNNY     24  15  68 CALM      30.29R
DELTA          NOT AVBL
NUCLA          FAIR      30  19  64 CALM      30.31R
$$

COZ017>023-064>068-171700-
...SOUTHWEST COLORADO...

CITY           SKY/WX    TMP DP  RH WIND       PRES   REMARKS
DURANGO        SUNNY     26  21  81 CALM      30.25R
CORTEZ         SUNNY     28  20  71 CALM      30.27R
PAGOSA SPRINGS FAIR      22  21  96 CALM      30.25R
TELLURIDE      SUNNY     22   8  54 SE6       30.28R WCI  14
WOLF CREEK PAS   N/A     12  12 100 S9        30.27R WCI   0
$$

COZ009-010-012-014-032>034-037-058>063-171700-
...CENTRAL COLORADO...

CITY           SKY/WX    TMP DP  RH WIND       PRES   REMARKS
ASPEN          SUNNY     19  10  68 S8        30.22R WCI   9
BUENA VISTA    FAIR      34   1  24 W8G30     30.11R WCI  27
COPPER MTN     SUNNY     14   5  67 W6        30.12R WCI   5
BERTHOUD PASS  FAIR       5  -6  61 NW26G41   30.05S WCI -18
COTTONWOOD PAS SUNNY     30   5  34 W37G64    30.05S WCI  14
GUNNISON       SUNNY     23  13  65 CALM      30.25R
KREMMLING      SUNNY     34  14  44 W6        30.18R WCI  29
LEADVILLE      SUNNY     20   5  52 N18G28    30.14R WCI   5
MONARCH PASS   SUNNY     12   5  73 W45G54    30.21R WCI -13
SALIDA         FAIR      38   1  21 W23G38    30.17R
SUNLIGHT       SUNNY     14   9  79 SW12G21     N/A  WCI   0
WILKERSON PASS SUNNY     19  -8  30 W17       30.02R WCI   4
$$

COZ069>075-171700-
...SAN LUIS VALLEY/SANGRE DE CRISTO MOUNTAINS...

CITY           SKY/WX    TMP DP  RH WIND       PRES   REMARKS
ALAMOSA        SUNNY     28  18  66 N5        30.20R WCI  23
DEL NORTE      FAIR      28   9  44 SW7       30.21R WCI  21
LA VETA PASS   SUNNY     27  10  50 SW23G37   30.22R WCI  12
SAGUACHE       SUNNY     30  10  43 CALM      30.21R
$$

COZ035-036-038>040-171700-
...NORTHERN COLORADO FRONT RANGE...

CITY           SKY/WX    TMP DP  RH WIND       PRES   REMARKS
DENVER INTL AP MOSUNNY   36  15  42 SE10      30.04R
DMNS CITY PARK NOT AVBL
AURORA         SUNNY     37  13  38 SE9       30.05R
FRONT RANGE AP MOSUNNY   37  14  38 SE12      30.06R
ERIE MUNI ARPT FAIR      43   6  21 NE7       30.08S
BOULDER MUN AP FAIR      43   9  24 E12G17    30.00F
CENTENNIAL     MOSUNNY   35  14  42 SE12      30.04R WCI  27
BROOMFIELD     MOSUNNY   41   9  26 NW15G23   30.01R
LOVELAND       SUNNY     40  10  29 E14       30.03R
LONGMONT       FAIR      47   7  19 NW8       30.03S
$$

COZ041-046-047-076>085-087-088-171700-
...PIKES PEAK/PALMER DIVIDE AND SOUTHERN FOOTHILLS...

CITY           SKY/WX    TMP DP  RH WIND       PRES   REMARKS
COLO. SPRINGS  MOSUNNY   35  12  38 SE6       30.08R WCI  30
A. F. ACADEMY  SUNNY     39   7  26 S10       30.05R
SCHRIEVER AFB  NOT AVBL
CHEYENNE MTN   NOT AVBL
ELLICOTT         N/A    N/A N/A N/A E3        30.07R
FALCON         FAIR      36   8  31 NE5       30.08S
FORT CARSON    SUNNY     35  13  40 S5        30.08R WCI  31
LIMON          SUNNY     34  14  43 NW10      30.09R WCI  26
MONUMENT HILL  SUNNY     32  12  43 SE7       30.07R WCI  26
CANON CITY       N/A     48  10  21 NW3       30.08R
WALSENBURG     FAIR      48  12  23 W16G25    30.09R
TRINIDAD       SUNNY     43  14  31 E7        30.12R
$$

COZ042>045-048>051-090-091-171700-
...NORTHEAST COLORADO...

CITY           SKY/WX    TMP DP  RH WIND       PRES   REMARKS
GREELEY ARPT   SUNNY     41  12  30 NW16      30.05R
AKRON          SUNNY     41  14  33 NW30G43   30.04R
BURLINGTON     SUNNY     43  13  29 N23G36    30.08R
WRAY           FAIR      43  18  36 NW17      30.07R
YUMA           NOT AVBL
STERLING       FAIR      41  16  36 NW23      30.05R
HOLYOKE        FAIR      43  19  39 NW18G28   30.05R
FORT MORGAN    FAIR      42   9  26 NW22G28   30.07R
$$

COZ086-089-092>099-171700-
...SOUTHEAST COLORADO...

CITY           SKY/WX    TMP DP  RH WIND       PRES   REMARKS
PUEBLO         SUNNY     40  18  41 SE8       30.11R
LA JUNTA       SUNNY     41  14  33 E5        30.13R
LAMAR          SUNNY     46  13  26 N12       30.11R
SPRINGFIELD      N/A     42  12  29 N22       30.12R
$$





USA.gov is the U.S. government's official web portal to all federal, state and local government web resources and services.